Location: Brantley
(31.5822°N, 86.2569°W)
Time: 19:05:49
(UTC+00:00)

Courier 1B Rocket - Pass Details

Date: 17 February 2026
Orbit: 920 x 1201 km, 28.2° (Epoch: 10 March)

Event Time Altitude Azimuth Distance (km) Brightness Sun altitude
Rises 04:52:06 0° 272° (W) 3,655 - -65.1°
Reaches altitude 10° 04:54:43 10° 268° (W) 2,742 - -65.4°
Maximum altitude 05:01:12 54° 192° (SSW) 1,239 - -66.3°
Drops below altitude 10° 05:08:10 10° 117° (ESE) 2,942 - -67.2°
Sets 05:11:05 0° 113° (ESE) 3,941 - -67.5°
